This is the latest recevied weather packets stored in our database for station/object JF7BTK-10. If no packets are shown the sender has not sent any weather packets the latest 10 day(s).
| Time | Temp. | Humidity | Pressure | Rain* | Wind** | Luminosity | Snow |
|---|---|---|---|---|---|---|---|
| 1788145988 | 79° F | 63% | 757.7 mmHg | 0 in | - | - | - |
| 1788145087 | 79° F | 63% | 757.8 mmHg | 0 in | - | - | - |
| 1788144188 | 79° F | 64% | 757.7 mmHg | 0 in | - | - | - |
| 1788143288 | 79° F | 63% | 757.7 mmHg | 0 in | - | - | - |
| 1788142388 | 78° F | 66% | 757.9 mmHg | 0 in | - | - | - |
| 1788141487 | 77° F | 66% | 757.7 mmHg | 0 in | - | - | - |
| 1788140587 | 76° F | 69% | 757.6 mmHg | 0 in | - | - | - |
| 1788139688 | 76° F | 67% | 757.9 mmHg | 0 in | - | - | - |
| 1788138788 | 76° F | 68% | 757.8 mmHg | 0 in | - | - | - |
| 1788137888 | 76° F | 67% | 757.7 mmHg | 0 in | - | - | - |
| 1788136988 | 77° F | 67% | 757.7 mmHg | 0 in | - | - | - |
| 1788136089 | 75° F | 70% | 757.7 mmHg | 0 in | - | - | - |
| 1788135189 | 75° F | 70% | 757.6 mmHg | 0 in | - | - | - |
| 1788134287 | 74° F | 71% | 757.5 mmHg | 0 in | - | - | - |
| 1788133387 | 74° F | 71% | 757.5 mmHg | 0 in | - | - | - |
| 1788132488 | 74° F | 70% | 757.3 mmHg | 0 in | - | - | - |
| 1788131588 | 74° F | 70% | 757.3 mmHg | 0 in | - | - | - |
| 1788130688 | 74° F | 69% | 757.4 mmHg | 0 in | - | - | - |
| 1788129788 | 74° F | 70% | 757 mmHg | 0 in | - | - | - |
| 1788128887 | 73° F | 71% | 757.2 mmHg | 0 in | - | - | - |
| 1788127989 | 74° F | 71% | 757 mmHg | 0 in | - | - | - |
| 1788127088 | 73° F | 74% | 757 mmHg | 0 in | - | - | - |
| 1788126189 | 71° F | 80% | 757 mmHg | 0 in | - | - | - |
| 1788125288 | 70° F | 80% | 757.1 mmHg | 0 in | - | - | - |
| 1788124388 | 70° F | 86% | 757 mmHg | 0 in | - | - | - |
* Rain latest hour (hover to see other rain measurements)
** Current wind speed in m/s (hover to see current wind gust speed)